Location: Bucharest
(44.4268°N, 26.1025°E)
Time: 10:31:29
(UTC+03:00)

SPROUT - Pass Details

Date: 28 June 2022
Orbit: 588 x 598 km, 97.9° (Epoch: 15 August)

Event Time Altitude Azimuth Distance (km) Brightness Sun altitude
Exits shadow 02:48:35 29° 258° (WSW) 1,103 ? -19.2°
Maximum altitude 02:48:47 29° 264° (W) 1,100 ? -19.2°
Drops below altitude 10° 02:52:26 10° 325° (NW) 1,924 ? -19.0°
Sets 02:54:50 0° 337° (NNW) 2,830 ? -18.8°
